Theta_e
315 315 316 316 316 316 316 316 315 315 315 315 315 316 316 315 316 317 318 319 320 322 322 321 321 322 324 326 324 326 327 327 328 329 329 329 329 329 329 330 331 331 332 333 334 333 331 329 327 325 325 328
312 313 314 314 314 314 314 313 313 312 312 312 312 312 312 312 312 313 315 316 317 319 319 319 319 319 323 324 324 325 324 325 325 326 326 326 326 326 326 327 326 326 327 326 328 330 329 327 325 324 324 328
308 311 310 311 311 311 311 310 310 309 309 308 308 308 309 309 309 309 311 313 313 315 316 316 316 317 320 322 322 323 323 323 323 324 323 323 323 323 323 322 322 321 322 321 321 322 323 323 322 320 317 315
304 307 308 308 308 308 308 308 307 306 305 305 305 305 306 306 304 304 305 310 308 312 313 314 313 315 318 320 321 320 320 321 321 322 321 321 320 320 319 318 317 316 317 317 317 317 316 315 314 312 313 312
303 304 305 304 305 305 305 305 304 304 303 302 301 302 302 302 299 299 301 303 304 308 308 312 312 313 315 317 319 319 318 318 319 319 319 319 318 316 315 314 313 313 313 313 313 312 311 311 309 308 308 308
303 302 302 300 300 301 301 302 302 300 299 299 296 299 298 298 299 298 300 301 304 304 306 310 311 312 313 315 317 317 317 316 316 316 316 316 315 312 311 310 307 307 308 309 309 308 307 305 306 305 305 305
301 300 299 298 298 299 300 300 299 298 298 296 295 295 296 297 297 297 298 299 302 303 305 308 309 310 311 312 313 314 315 315 314 314 314 313 312 310 308 304 304 305 304 304 306 305 303 303 303 303 302 302
299 298 298 297 297 297 297 297 297 296 296 295 295 294 295 295 296 296 296 300 301 302 301 304 307 308 308 309 310 311 311 313 311 311 311 309 308 306 304 302 301 302 302 302 301 301 301 301 301 300 300 300
298 297 297 297 296 295 295 295 295 294 294 294 294 293 294 294 294 294 295 296 297 298 299 302 303 303 304 305 306 309 307 309 308 307 306 304 303 302 301 300 299 299 299 300 299 299 299 298 298 299 298 298
298 297 295 295 296 295 294 294 293 293 292 292 293 292 293 294 293 293 294 295 295 297 298 300 301 302 303 303 304 306 306 307 307 305 305 303 301 300 300 299 298 298 297 297 298 297 297 297 296 296 296 296
296 294 294 294 295 293 292 292 291 291 291 291 291 291 292 292 291 291 293 293 294 295 297 299 301 300 301 301 302 304 304 305 306 304 304 303 301 300 299 298 298 297 297 296 296 296 295 295 294 294 294 294
294 293 293 294 294 292 294 291 290 290 291 291 290 291 291 292 290 290 291 292 293 294 296 297 300 300 300 300 301 302 303 303 304 303 302 302 301 299 298 297 297 296 296 295 295 294 294 294 294 293 292 292
293 293 293 292 292 291 294 290 289 290 290 289 290 290 290 290 289 289 289 290 291 293 294 296 298 298 299 299 300 300 300 301 302 301 302 300 299 299 297 296 296 295 295 295 295 294 293 293 292 292 292 291
292 292 291 291 291 291 292 289 289 289 288 288 288 288 288 289 289 288 288 288 289 290 292 294 295 297 297 298 299 299 298 300 301 300 300 300 298 298 297 296 295 295 294 293 293 293 292 292 292 292 291 291
292 292 291 291 290 290 289 288 288 287 287 287 287 287 287 287 287 287 287 287 288 289 290 292 293 294 296 297 297 298 297 299 300 300 299 299 298 297 296 295 295 294 293 292 292 292 291 291 291 291 291 290
291 291 290 291 289 289 288 288 286 286 286 286 286 286 286 286 286 286 286 286 286 287 288 289 291 293 293 294 295 296 296 297 298 299 299 298 299 298 296 295 295 294 292 291 291 291 290 290 290 290 289 289
290 289 290 290 289 288 288 286 286 285 284 284 284 285 284 284 285 285 284 285 285 287 286 288 289 290 293 294 294 295 295 295 296 297 298 297 297 296 296 295 294 294 292 291 291 291 290 290 289 289 289 288
289 289 291 290 287 288 286 285 284 284 283 284 283 283 283 283 284 283 283 284 284 285 285 286 287 288 289 291 294 294 294 293 293 294 295 296 296 295 294 294 294 293 292 291 291 290 290 289 289 289 288 287
290 289 289 287 287 286 285 284 283 283 282 282 282 282 282 282 283 282 282 283 283 283 284 284 285 286 287 288 292 292 292 291 291 292 292 294 294 294 293 293 293 293 292 290 290 290 290 288 288 288 287 287
289 289 288 288 288 285 284 284 283 282 281 281 281 281 280 281 282 281 281 281 282 282 282 282 283 284 285 287 289 290 290 290 289 289 291 292 293 292 291 291 290 291 291 291 289 289 289 288 288 287 287 286
289 289 288 286 285 285 284 283 282 281 281 280 280 279 279 279 280 279 280 280 281 281 281 281 281 282 283 285 286 287 288 287 288 287 288 290 291 293 290 289 288 289 290 291 289 289 288 287 287 286 286 285
288 288 288 286 285 286 283 282 281 280 280 279 279 279 278 278 279 279 279 279 280 280 281 280 280 281 282 283 283 284 285 285 286 286 286 286 289 291 290 288 287 286 289 291 289 288 287 287 286 285 284 283
287 287 286 285 285 284 283 282 281 280 279 279 279 278 278 278 277 278 278 279 279 279 279 279 279 279 280 282 282 283 283 283 283 283 284 284 286 289 290 288 287 286 287 288 288 287 286 285 284 283 283 281
285 285 285 284 284 283 282 281 281 280 279 279 278 278 278 277 277 277 278 278 278 278 278 278 278 278 279 281 281 281 281 281 281 281 281 282 284 286 288 289 287 286 285 286 287 287 286 286 284 282 281 280
284 283 283 282 282 281 281 281 280 279 279 278 278 278 278 277 277 276 277 278 278 277 278 277 277 278 278 280 281 280 280 280 280 281 280 281 283 284 285 286 287 286 284 284 285 287 286 285 284 283 282 280
282 283 283 283 282 281 279 278 278 278 278 278 279 278 278 277 276 276 277 278 278 277 277 276 277 277 278 279 280 280 280 280 280 279 279 279 280 282 283 284 286 285 285 283 282 283 285 284 283 283 282 281
281 281 283 282 282 281 280 280 280 279 279 279 278 278 277 277 276 276 276 277 278 277 276 276 276 276 277 278 279 279 279 279 278 278 277 278 278 279 282 284 286 284 285 281 283 283 284 283 283 283 282 281
282 282 283 283 282 281 281 280 281 280 279 279 278 277 277 277 276 275 275 276 277 277 276 275 275 276 276 277 278 278 277 277 277 277 276 277 277 279 278 281 282 284 283 283 282 279 281 281 283 282 282 283
282 282 281 281 282 282 282 282 280 279 278 278 279 278 277 276 276 275 275 275 276 277 275 275 275 275 276 276 276 277 276 275 276 276 276 276 276 277 277 278 280 282 282 282 283 281 281 280 280 280 282 283
281 281 281 282 284 282 281 279 278 277 276 276 277 277 277 276 276 275 274 274 274 275 275 273 274 274 274 275 275 275 275 275 275 275 275 275 275 275 276 277 278 277 279 281 282 283 282 282 279 278 281 282
281 281 283 282 282 281 279 278 278 278 277 277 277 277 276 276 275 274 273 273 274 274 274 273 273 273 273 274 274 274 274 273 273 273 274 275 274 274 275 276 276 275 275 278 279 280 281 281 282 282 280 278
Wind_Speed
16 16 16 16 16 16 16 17 17 17 17 18 18 18 18 18 18 18 18 19 19 18 18 19 19 20 21 19 19 20 21 21 22 21 21 20 19 20 20 20 19 18 19 17 11 8 8 8 9 9 10 5
16 15 16 16 16 16 16 17 17 17 17 17 18 18 18 18 18 18 17 18 18 19 18 19 19 19 20 19 19 20 21 20 20 19 19 18 18 18 18 17 17 18 18 20 18 11 9 10 8 8 5 5
9 16 15 16 16 16 16 16 17 17 17 17 17 18 18 18 17 17 16 17 17 18 18 18 19 19 19 20 20 18 20 19 20 18 18 18 18 18 18 17 17 18 19 19 20 20 14 10 12 15 11 7
7 12 15 15 15 15 15 16 16 16 17 16 17 17 17 17 14 14 12 18 14 17 17 17 17 18 19 19 20 20 19 19 20 19 19 18 19 19 18 18 17 18 19 19 19 18 18 17 16 9 7 8
7 8 13 10 13 14 15 14 15 15 15 15 14 15 15 14 10 9 8 10 10 14 11 14 17 17 17 18 19 20 18 19 20 19 20 19 18 19 19 17 16 18 19 20 19 19 17 17 10 8 8 8
5 5 8 7 6 6 8 10 11 9 9 11 9 14 10 8 8 8 7 9 10 8 10 9 17 16 16 17 19 18 17 17 19 19 19 19 18 18 17 17 9 10 14 18 19 17 18 11 8 9 8 8
5 6 5 6 6 6 8 7 7 7 8 8 10 9 8 8 7 8 7 8 10 9 13 11 16 16 16 16 17 17 16 15 17 17 18 19 17 16 16 10 9 8 8 9 16 15 10 8 8 8 8 7
5 5 5 5 6 6 6 7 7 7 8 8 9 9 8 8 8 8 7 11 14 12 9 9 13 16 15 15 14 17 10 12 14 16 16 16 17 12 9 8 8 8 8 8 8 8 8 8 8 9 7 7
5 5 5 6 6 6 6 6 7 7 7 8 9 9 8 8 7 7 7 8 8 8 8 7 9 9 9 8 8 12 8 7 7 8 8 8 10 8 9 8 8 8 8 8 8 8 8 8 8 7 7 7
6 6 5 6 6 6 6 6 6 6 6 7 8 8 8 8 8 8 8 8 9 8 7 7 8 8 8 8 9 8 8 7 6 7 6 7 7 7 7 7 7 7 8 7 8 7 8 8 8 7 7 7
5 5 5 5 6 6 6 5 6 6 6 6 7 8 8 8 8 8 7 8 8 9 8 7 7 8 7 8 8 8 7 8 7 7 6 6 7 6 6 7 7 7 8 7 7 7 8 8 8 7 7 7
5 5 5 5 5 6 6 6 6 6 6 7 7 8 8 7 6 7 8 8 8 8 7 8 7 7 7 7 8 8 7 7 7 7 6 6 6 7 7 7 7 7 7 7 6 7 7 7 7 7 6 6
5 5 5 5 5 6 6 6 6 6 7 7 7 8 9 8 8 8 7 8 8 8 7 7 8 7 7 7 8 8 7 8 7 7 6 6 6 6 6 6 7 6 7 7 7 7 7 7 7 7 7 7
5 4 5 5 5 5 6 6 6 6 6 7 7 7 8 8 7 7 7 7 7 8 8 8 8 7 8 8 7 7 7 8 7 7 6 5 6 6 7 6 7 6 6 7 7 7 7 7 6 6 6 7
4 3 4 4 5 6 6 6 6 6 6 7 7 7 8 8 8 7 7 7 7 7 7 7 8 7 7 8 8 7 7 7 7 6 6 6 5 6 6 6 6 6 6 6 7 7 7 6 5 6 6 6
3 3 3 4 6 6 6 6 6 6 6 7 7 7 8 8 8 7 7 8 8 7 7 7 7 7 7 7 7 7 8 8 7 6 6 6 6 5 5 5 5 5 5 5 6 6 6 5 6 6 5 6
2 3 4 5 5 5 6 6 6 6 6 6 6 7 8 8 8 8 8 7 8 7 7 7 7 8 8 7 7 7 9 9 7 6 6 7 5 6 5 6 5 4 5 5 5 5 6 5 6 6 6 6
3 3 5 5 5 5 6 6 6 6 6 6 6 6 8 8 8 8 8 8 8 7 7 7 7 8 8 8 9 8 8 8 7 7 8 7 6 6 6 6 6 5 5 4 4 5 5 5 6 5 6 6
2 3 5 5 5 5 6 6 6 6 6 6 6 6 7 8 8 9 9 8 7 7 7 7 7 8 8 8 8 7 8 8 7 7 7 7 7 6 6 6 6 6 4 4 5 5 5 6 5 6 6 6
4 4 5 5 5 5 5 6 6 6 6 6 6 6 7 8 7 9 9 8 8 7 7 7 7 8 8 10 8 8 8 8 8 8 7 7 7 7 7 8 7 6 5 4 5 5 5 5 5 5 5 6
5 5 5 4 5 5 6 6 6 6 6 6 7 6 7 7 7 8 8 8 8 7 7 7 7 8 9 8 8 8 8 8 7 7 7 6 7 6 7 7 8 7 5 4 4 4 6 6 6 7 6 7
5 5 4 4 5 5 7 6 5 5 6 6 6 7 7 7 7 7 8 8 7 6 7 7 7 8 9 8 8 7 7 7 7 8 7 7 7 6 7 7 8 8 6 3 3 4 5 6 5 6 6 6
4 3 3 3 4 5 5 5 5 5 6 6 6 7 7 8 7 7 7 8 8 7 7 7 8 7 9 7 7 7 8 9 9 9 8 7 7 7 5 5 6 6 4 3 3 4 5 5 6 5 5 5
3 2 3 3 3 5 4 5 5 5 6 5 6 7 7 7 7 7 6 7 7 7 7 7 7 7 7 7 7 8 9 9 8 10 10 9 8 7 6 5 6 7 5 2 4 4 5 5 5 6 5 6
2 1 1 1 3 4 3 4 4 5 5 6 5 6 7 7 7 7 6 8 7 8 8 7 7 7 7 7 8 8 8 9 9 9 7 7 5 7 7 6 8 8 3 3 2 2 5 5 5 5 6 7
2 1 0 2 4 5 4 4 5 5 5 5 5 6 6 7 7 7 7 8 8 8 7 7 7 7 7 8 7 7 7 8 9 10 9 9 7 6 6 5 8 9 5 4 3 1 1 2 3 4 5 6
2 2 2 0 2 4 4 3 4 4 3 3 5 5 6 6 7 7 7 8 7 6 7 7 7 7 6 8 7 7 8 8 9 9 9 9 7 7 6 4 5 8 8 4 4 2 1 1 1 2 2 5
3 3 1 3 5 3 4 4 3 4 4 5 4 6 6 7 7 7 7 8 7 6 7 8 7 6 7 7 7 7 7 8 9 9 8 8 7 7 5 6 4 7 7 6 5 2 1 2 1 1 2 5
4 2 2 3 4 4 4 3 4 3 5 5 4 4 6 7 7 7 7 7 7 7 7 7 7 7 7 7 8 7 7 7 8 8 7 8 7 7 5 5 4 5 7 7 7 3 2 2 2 1 3 6
4 3 1 1 3 1 2 3 3 6 5 5 5 5 3 5 7 7 6 7 7 7 7 8 8 7 7 6 6 7 6 6 7 8 9 8 6 6 7 4 4 4 6 5 7 7 5 2 1 2 3 3
4 4 4 3 2 2 2 3 3 2 2 3 3 3 4 4 5 7 7 7 8 8 7 8 8 7 6 6 6 6 6 7 7 6 6 6 7 6 6 6 4 6 5 5 4 7 5 4 3 3 2 2
Wind_Direction
37 37 36 34 32 30 28 25 23 19 15 12 9 5 3 2 2 2 3 7 5 6 8 13 9 3 356 360 6 5 0 1 1 359 356 355 351 348 346 344 348 353 345 335 318 300 297 285 290 303 304 260
36 33 33 33 32 30 28 26 22 18 14 11 8 5 2 2 3 1 1 7 5 6 5 10 6 4 358 3 8 12 1 0 2 359 357 1 1 360 356 353 3 7 10 8 355 328 294 282 287 317 313 312
29 32 30 31 30 29 27 26 22 18 15 11 8 6 2 1 2 359 357 6 4 4 3 7 5 360 2 8 7 15 6 359 2 3 3 7 8 6 8 10 11 14 18 19 19 23 26 30 36 42 55 59
27 29 30 29 29 29 28 25 22 18 15 11 8 7 3 2 2 356 348 2 1 358 358 6 4 1 3 10 13 18 9 4 4 6 9 10 12 11 13 15 18 20 23 25 25 27 35 45 53 54 48 48
28 26 30 24 25 28 27 26 22 20 16 11 6 6 3 3 359 352 346 359 353 351 344 4 5 3 5 11 15 18 8 12 9 8 13 13 14 16 15 14 17 23 25 27 29 30 35 46 46 41 41 35
28 24 26 23 17 18 23 20 20 17 17 11 6 4 1 360 358 352 351 357 351 345 341 355 6 5 9 12 14 11 10 15 12 11 13 14 16 16 15 16 14 16 19 27 30 32 36 40 41 37 38 34
22 25 25 19 16 15 18 14 17 16 17 13 8 3 1 1 359 352 349 350 348 347 349 356 6 5 6 6 9 3 9 16 14 14 14 15 16 17 16 19 16 14 15 18 26 30 32 38 37 34 29 29
23 21 23 21 18 19 13 13 14 14 15 12 8 5 2 1 355 351 346 349 355 355 357 352 2 3 2 1 360 360 4 11 15 13 15 17 16 15 19 18 14 13 17 18 21 26 28 32 36 35 31 29
22 20 23 21 19 19 16 15 17 17 13 9 9 5 2 357 355 350 351 353 352 354 349 351 5 2 359 352 354 359 3 1 14 12 14 14 15 16 15 17 16 15 15 20 22 28 24 25 31 33 30 24
25 24 24 22 18 19 19 17 21 18 16 10 9 6 359 356 360 355 355 358 355 351 338 355 4 360 358 354 358 354 360 352 17 14 17 19 17 15 14 19 15 18 18 16 24 26 24 25 26 30 32 29
27 25 25 26 21 24 20 17 18 18 14 12 10 9 4 5 358 355 353 355 352 352 348 359 2 0 356 356 357 347 358 353 13 19 13 21 21 18 18 21 23 20 22 21 21 25 28 26 26 25 28 28
24 19 27 23 20 22 24 22 18 15 15 11 12 10 6 8 2 356 354 354 353 350 342 356 359 360 358 0 356 350 0 358 5 14 15 20 20 21 23 18 25 23 24 22 20 24 27 32 34 30 20 19
21 18 29 24 23 22 25 23 21 20 17 17 12 13 10 7 2 2 359 356 354 344 350 352 3 360 0 3 2 360 359 1 1 6 9 20 21 24 22 19 23 19 27 26 25 24 27 32 33 30 28 25
32 22 35 25 29 26 27 29 28 25 24 18 15 13 8 7 7 4 358 353 351 352 351 354 359 359 360 5 358 1 359 360 358 7 359 13 23 26 27 28 23 15 20 22 23 24 30 29 25 34 35 32
37 33 37 31 36 34 36 32 32 27 24 20 18 12 6 9 8 4 360 358 355 354 354 354 356 359 358 4 0 2 359 356 356 3 6 4 18 25 28 33 26 22 23 22 23 25 31 28 25 33 30 34
37 39 41 43 42 44 40 40 33 30 24 21 16 12 10 10 8 6 2 2 358 0 356 356 356 354 356 2 358 358 1 355 350 358 4 10 12 24 30 32 35 35 31 24 24 17 26 20 28 25 23 29
3 37 47 52 49 49 49 41 38 33 24 20 16 13 13 11 10 11 5 360 2 357 357 356 354 356 355 2 357 359 0 355 354 352 4 11 10 23 21 28 26 36 39 36 28 22 26 22 29 29 31 30
21 17 56 57 51 54 53 44 43 33 24 23 17 14 14 12 13 10 5 3 359 3 1 360 1 360 355 349 358 2 3 355 354 355 358 0 5 13 18 17 14 20 32 33 32 32 27 36 33 32 34 33
31 44 62 61 56 54 54 50 45 32 26 23 17 16 15 13 15 11 7 5 4 2 8 4 4 5 352 341 346 4 6 1 356 358 354 358 1 7 18 12 13 16 22 32 33 29 32 41 39 41 40 37
52 63 73 69 65 59 56 54 45 32 29 25 20 19 17 12 17 14 8 7 6 9 10 9 7 3 354 353 350 2 6 6 5 356 350 355 0 11 14 13 8 15 12 28 40 35 41 41 41 45 43 41
53 73 75 72 70 67 62 56 46 35 27 28 25 19 19 13 15 16 10 10 9 14 12 10 8 1 358 358 359 4 4 9 1 359 351 350 5 12 14 12 4 4 7 15 48 49 50 44 42 44 38 38
71 77 83 80 72 70 67 59 53 42 35 33 27 21 21 15 14 16 12 12 12 17 18 14 11 3 360 359 4 6 9 4 1 357 358 351 358 2 23 11 6 354 353 10 57 57 55 48 50 48 45 43
56 71 87 88 78 72 71 67 58 47 44 36 30 26 19 19 17 10 12 12 12 19 17 13 12 9 0 3 6 12 14 6 0 359 354 358 349 358 11 23 3 352 341 18 59 61 49 61 53 55 54 47
24 53 68 70 62 65 66 63 61 47 49 38 36 28 24 21 18 12 8 15 16 15 17 13 10 7 4 9 17 24 22 11 5 358 352 350 343 351 353 9 12 3 358 9 57 69 65 63 69 62 60 55
17 7 348 18 68 89 71 72 66 56 46 44 40 33 30 24 19 15 12 19 17 17 16 11 6 10 10 13 25 27 23 12 1 355 349 342 341 357 349 4 13 3 0 11 19 50 75 64 58 66 62 62
318 269 212 130 108 102 75 60 57 51 42 48 44 38 32 27 21 19 24 19 22 23 15 7 8 12 9 16 20 24 19 17 10 3 4 358 355 355 348 356 13 3 8 30 360 306 151 105 66 72 66 69
330 307 300 141 165 125 93 79 85 80 56 56 55 44 38 33 27 21 24 21 22 20 12 8 9 10 6 20 17 18 19 15 15 12 6 3 359 343 344 351 12 15 23 13 313 243 238 213 268 192 92 90
304 272 290 47 94 95 111 118 100 75 54 41 49 42 37 38 30 26 24 18 20 23 15 11 11 6 17 21 21 23 24 18 14 9 6 0 352 357 352 360 343 22 8 18 353 22 33 274 342 339 53 7
328 342 45 77 77 94 91 70 65 55 39 35 33 46 36 35 31 30 28 18 15 20 17 12 13 16 19 26 22 23 24 20 11 6 5 358 355 3 2 345 351 349 9 14 22 26 359 353 21 40 333 330
355 19 56 131 157 125 34 30 4 27 25 16 25 32 48 41 39 32 28 22 16 19 20 18 15 18 22 25 23 22 19 14 8 6 4 2 357 357 1 332 353 341 354 352 23 23 49 36 159 332 306 339
13 29 23 31 44 71 123 117 66 61 45 45 23 53 52 42 41 42 34 26 25 24 25 26 23 20 25 30 30 24 23 19 10 352 355 359 8 4 359 358 23 13 337 328 23 7 17 30 20 352 29 2